Theta_e
316 315 316 316 316 319 320 318 318 319 320 318 318 317 317 315 315 317 317 317 318 317 316 316 316 316 316 316 317 317 317 316 316 317 317 317 318 318 318 318 318 317 317 318 318 318 320 319 318 320 321 320 321 321 319 318 317 317 317 314 312 310 310 316 319 316 315 313 313 313 312 312 313 311 311 316 314 308 309 310 307 305 305 306 306 307
318 317 317 317 320 321 320 320 320 319 319 318 317 317 316 315 315 317 318 318 318 317 317 317 316 316 317 317 317 318 317 317 316 317 317 317 318 318 318 318 318 318 318 317 318 318 319 319 318 319 321 321 321 322 321 320 319 320 318 318 319 313 310 316 317 313 312 311 311 312 311 311 313 311 308 311 309 305 308 309 305 303 306 307 305 305
318 317 317 319 321 320 319 319 318 318 318 317 316 315 314 314 315 316 319 318 317 317 316 316 316 316 316 316 316 318 318 318 317 317 317 316 317 317 317 318 318 318 318 317 317 317 318 319 318 318 319 321 322 322 322 320 319 320 319 319 321 317 312 312 314 315 313 310 310 310 309 310 313 312 309 309 307 305 308 313 313 311 311 308 304 305
317 317 318 319 319 319 319 318 318 318 317 316 316 314 314 314 314 314 317 319 318 318 317 316 315 315 316 316 316 317 318 318 317 316 317 317 317 317 317 317 317 317 317 317 317 317 317 319 319 318 318 320 321 322 322 321 320 319 319 320 320 319 316 312 313 315 314 310 311 310 310 310 312 312 312 310 308 306 306 312 316 315 312 308 306 306
317 318 319 319 318 319 318 318 318 317 316 317 317 316 314 316 315 314 317 318 317 318 319 317 315 314 315 314 316 317 318 318 318 317 317 317 317 317 316 316 317 317 317 318 317 317 318 319 320 320 319 318 320 322 322 321 321 320 319 319 321 321 319 315 313 313 312 312 312 311 312 314 315 314 313 309 307 306 306 310 313 314 313 310 309 308
317 319 319 318 318 318 317 318 318 317 316 316 317 317 317 316 316 316 317 317 315 315 318 318 315 315 315 314 315 317 317 318 318 317 317 318 317 317 317 317 317 317 318 318 318 318 318 319 320 321 320 318 319 322 322 321 320 320 319 319 320 321 320 317 314 313 313 313 313 313 315 317 316 315 313 309 307 307 306 307 307 310 312 310 311 310
317 318 318 317 317 317 317 317 317 318 316 314 317 317 317 317 316 317 315 315 313 313 316 318 315 316 317 316 315 316 317 317 317 317 317 317 317 317 318 318 318 318 318 318 317 318 319 320 321 321 320 319 319 320 321 321 320 320 320 320 320 321 321 319 315 314 314 313 314 314 315 314 313 314 313 309 307 308 307 306 305 306 307 309 315 315
317 318 317 317 317 316 316 315 316 317 315 315 318 317 316 317 316 316 314 314 313 314 316 318 316 315 315 315 316 316 316 317 317 317 317 317 317 316 317 318 319 318 318 318 316 317 319 321 321 320 321 320 319 320 320 321 320 320 320 320 320 321 320 319 316 315 314 314 316 315 313 313 313 314 312 310 309 308 307 306 306 306 305 307 313 315
318 317 317 317 316 315 314 314 316 317 315 316 319 317 316 316 316 315 314 313 314 314 314 315 316 315 314 315 317 316 315 316 316 317 317 317 316 316 316 317 318 318 317 317 317 317 319 321 320 319 321 320 319 320 320 321 321 321 321 320 320 321 321 320 318 316 314 315 317 316 314 315 315 314 312 313 313 309 306 306 306 306 306 306 307 308
317 316 317 316 315 315 314 314 315 316 316 316 317 316 316 316 315 314 314 313 313 314 313 313 314 313 312 314 316 316 315 315 316 317 317 317 317 316 316 316 316 317 317 317 318 318 319 321 320 319 319 319 319 319 319 320 320 321 321 320 320 321 321 320 318 316 314 315 317 316 315 316 316 315 313 313 313 308 307 308 307 306 307 307 307 306
315 316 316 316 315 315 314 314 315 315 316 316 316 314 315 314 313 314 314 313 313 313 313 313 313 313 312 313 314 316 316 316 317 317 316 317 317 317 316 316 316 317 317 317 318 319 319 320 319 318 319 319 319 319 319 320 321 321 321 320 320 321 321 319 317 316 315 314 315 314 315 316 314 314 312 310 312 310 308 308 308 307 308 308 307 306
314 315 314 315 314 314 313 313 315 316 315 315 314 313 313 313 313 313 313 314 314 314 313 313 313 313 312 313 314 316 317 317 317 315 316 316 317 317 317 317 317 317 317 317 319 319 318 319 320 319 319 319 319 319 319 320 321 322 322 320 321 321 321 318 316 316 315 314 314 314 315 315 313 313 310 309 311 312 308 307 307 308 309 310 311 310
313 313 313 314 313 312 312 312 313 314 314 314 312 312 313 312 313 314 314 315 315 314 313 313 314 313 312 313 315 316 316 316 317 316 315 315 317 318 317 317 317 317 317 317 318 319 318 319 320 319 319 318 318 318 319 320 321 322 321 319 320 321 321 319 316 315 316 315 314 314 315 315 314 312 310 309 310 310 307 307 308 308 308 309 311 312
313 314 314 314 314 312 311 311 311 313 313 313 311 312 312 312 313 315 314 314 315 314 315 315 314 314 313 314 316 316 316 316 316 316 316 315 316 317 317 317 317 316 317 317 317 318 319 319 319 319 319 318 318 318 318 319 321 322 320 316 317 320 322 320 317 315 316 316 315 315 314 314 314 312 311 309 308 308 308 308 308 307 306 306 307 309
313 313 314 314 314 313 312 311 311 312 313 313 313 312 312 312 314 314 313 313 313 314 315 315 314 314 313 315 317 317 316 316 315 316 315 315 315 317 317 316 317 317 316 316 317 317 319 319 318 318 318 318 318 318 318 319 320 320 318 314 314 318 322 321 318 315 316 316 314 314 314 314 313 312 310 309 307 308 308 307 306 306 306 306 306 307
311 312 314 314 315 314 314 313 314 313 312 313 314 313 313 314 313 313 314 314 314 314 314 313 314 314 315 316 317 316 316 316 315 316 315 315 315 315 316 316 315 316 315 316 316 317 318 319 319 318 318 318 319 318 318 320 320 317 314 312 311 315 321 321 318 316 315 315 314 313 313 313 313 312 310 309 308 308 308 306 306 306 306 306 306 306
311 312 313 314 314 314 314 315 315 314 312 313 313 312 313 314 314 314 315 314 315 315 314 313 314 315 314 316 316 316 316 315 315 315 315 315 315 315 315 315 315 315 314 315 315 316 318 319 319 319 319 319 319 318 318 318 318 315 313 313 311 314 319 320 318 316 314 313 313 312 312 312 312 311 310 309 308 308 307 306 306 306 306 306 305 306
311 312 313 313 313 313 314 315 314 314 313 312 311 312 313 313 313 314 314 314 314 314 314 314 315 315 313 314 315 315 316 315 315 316 316 316 316 316 315 315 315 314 313 314 315 315 316 318 319 319 318 318 318 318 318 318 317 316 315 314 312 312 316 319 317 315 313 312 312 311 311 311 312 311 309 308 307 307 306 306 306 306 306 306 306 305
312 311 312 312 312 313 314 314 312 313 314 312 312 313 312 312 312 312 313 313 313 314 314 314 314 313 312 312 314 315 315 316 316 316 315 315 316 315 315 315 314 314 314 314 314 315 314 316 319 319 318 318 317 318 318 318 318 318 316 315 313 310 312 317 316 314 313 312 311 312 311 311 311 311 310 308 307 307 306 306 306 306 306 306 305 305
313 312 312 313 313 313 313 312 311 311 313 313 313 313 312 312 312 311 312 313 312 313 314 313 312 312 312 313 314 314 315 316 316 317 316 316 316 315 315 315 314 314 314 314 314 314 314 314 316 318 318 318 318 317 317 317 318 319 317 316 315 311 311 316 316 314 313 312 311 311 311 311 311 310 309 308 307 307 306 306 306 306 306 305 305 304
313 312 312 313 313 312 312 312 311 311 312 313 312 312 312 312 313 313 312 311 311 312 312 313 313 311 313 315 315 315 316 317 316 317 317 316 315 315 315 315 315 315 314 314 314 314 314 314 314 316 318 317 317 317 316 317 318 319 317 315 314 311 312 316 317 315 313 312 311 311 310 310 311 310 309 308 308 307 307 307 306 306 305 305 304 304
313 313 312 313 312 312 312 312 312 312 313 312 312 311 312 313 314 315 314 313 311 312 312 313 313 312 313 317 316 315 316 316 315 315 316 316 314 315 315 315 314 314 314 314 314 314 314 314 314 315 317 316 316 317 317 317 316 318 317 314 312 310 311 315 316 314 313 311 310 310 310 310 311 310 309 308 307 307 306 306 306 305 305 304 304 304
314 313 312 312 312 312 312 312 313 313 313 312 312 312 312 312 313 313 313 313 313 313 312 313 313 313 314 317 316 316 315 315 315 316 316 316 316 316 315 315 315 314 314 314 314 314 313 314 314 314 315 315 315 316 318 318 318 318 316 313 311 311 312 315 316 314 313 311 311 311 310 311 311 310 309 308 307 307 306 306 306 305 304 304 304 304
313 312 311 311 311 310 311 311 312 312 312 311 311 311 311 311 311 311 312 312 313 314 312 313 313 313 314 316 316 316 315 314 315 315 316 315 315 315 316 315 315 315 314 314 314 314 314 314 314 314 315 315 315 317 319 320 320 317 314 313 312 312 314 317 318 316 314 313 312 312 311 311 311 311 310 309 307 307 306 306 305 305 304 304 304 305
312 312 312 311 311 312 312 311 311 312 311 310 310 311 311 311 311 313 313 313 314 314 313 313 313 312 313 315 314 314 314 314 314 314 315 315 315 315 315 315 315 315 314 315 314 314 314 314 314 314 314 314 316 318 320 320 319 317 315 315 315 315 315 318 319 317 316 315 314 313 312 312 312 311 310 309 308 307 306 306 305 304 304 305 305 305
311 311 311 310 311 312 312 311 311 310 309 309 310 310 311 311 312 313 313 313 313 313 313 313 313 312 313 313 313 313 312 312 313 313 314 314 313 313 313 314 315 315 314 314 314 315 315 315 314 314 314 313 315 318 319 319 319 319 318 317 316 317 317 318 318 317 316 315 315 314 313 313 312 311 311 310 308 307 307 306 305 305 305 305 305 305
310 310 309 309 310 310 311 311 310 309 307 307 308 309 310 310 311 312 312 311 312 313 312 312 313 313 312 311 311 311 311 311 312 312 312 311 311 311 311 312 314 315 315 314 315 315 314 315 315 314 314 314 314 315 317 319 319 318 319 319 317 317 318 318 317 317 315 315 315 315 314 313 312 311 311 310 309 308 307 306 305 305 305 305 305 304
308 308 308 308 307 308 308 308 308 307 306 307 308 308 309 309 310 311 311 311 311 311 310 311 312 312 311 309 309 310 310 311 311 311 311 310 310 310 310 311 312 312 313 314 315 314 314 315 315 315 315 315 314 315 316 317 318 317 318 318 317 317 318 317 316 316 316 315 315 315 314 313 312 311 310 310 309 308 307 306 305 305 305 304 303 303
307 307 307 307 306 307 307 307 307 307 307 307 308 308 308 309 309 311 311 310 310 310 310 311 313 312 311 309 309 310 310 310 310 310 310 309 309 309 310 310 310 310 312 313 314 315 314 314 314 314 315 316 315 315 315 315 317 317 316 318 318 318 317 317 315 315 315 314 314 314 314 313 312 311 311 310 309 307 306 306 305 305 304 303 303 303
308 307 308 307 307 307 307 307 307 307 307 307 307 307 308 308 308 309 309 309 310 311 311 311 313 312 311 310 309 309 309 310 310 309 309 309 309 309 309 310 310 310 310 311 312 314 314 314 314 314 314 315 316 314 313 314 316 316 317 318 318 317 317 315 313 314 314 314 314 313 312 312 311 310 310 309 308 307 306 306 306 305 304 304 303 303
308 307 307 308 307 307 307 307 306 306 306 306 306 306 306 307 308 308 309 309 310 311 311 313 314 312 311 310 309 309 309 309 309 309 309 309 309 309 309 309 310 310 310 311 311 312 313 313 314 314 314 314 315 314 313 314 315 316 318 318 317 317 317 314 311 312 313 313 313 312 311 310 310 310 309 308 307 307 307 306 305 305 304 304 303 303
308 308 307 307 307 306 306 305 305 305 306 305 306 306 306 307 308 309 309 309 310 311 312 312 312 310 310 309 309 309 308 308 308 308 309 309 310 310 310 310 310 310 311 312 312 312 313 313 313 314 314 313 313 314 314 313 314 315 317 316 315 316 316 314 312 311 312 312 312 311 311 310 310 310 309 308 307 307 306 306 305 305 304 304 303 303
307 307 307 306 306 305 305 305 305 306 305 305 306 307 307 308 308 308 308 309 309 311 311 310 309 309 308 308 308 308 307 308 308 309 310 310 310 310 310 311 311 310 311 312 312 312 313 314 314 313 313 313 313 313 314 313 313 314 315 314 315 315 315 314 313 312 312 311 311 310 310 310 310 309 308 308 307 306 306 305 305 304 304 304 303 303
307 306 306 306 305 305 305 305 305 305 304 305 306 307 307 307 307 307 308 309 308 309 309 309 308 308 308 308 308 308 308 309 309 310 310 310 310 310 310 310 310 310 310 311 312 312 312 313 314 313 312 312 313 313 314 313 312 313 313 314 314 314 314 313 312 311 311 310 310 310 310 310 309 308 307 307 306 305 305 305 304 304 304 303 303 303
306 306 306 305 305 305 305 305 305 304 304 305 306 306 306 306 306 307 307 307 307 308 308 308 307 307 308 308 308 309 309 310 309 309 310 310 310 310 310 310 310 310 310 311 311 311 312 312 313 312 312 312 313 313 313 312 312 312 312 313 313 313 312 312 311 310 310 309 309 310 309 309 308 307 307 306 305 305 305 305 304 303 303 303 302 302
306 306 305 305 305 305 304 304 304 304 305 305 306 306 306 307 307 308 309 308 308 308 308 308 307 308 308 310 310 309 310 309 309 309 309 309 309 309 310 311 310 310 311 310 311 312 312 312 313 313 312 313 313 314 313 312 311 311 312 313 312 311 311 311 310 310 310 309 309 309 308 307 307 306 306 305 305 305 305 305 304 303 303 302 302 301
306 305 305 305 305 305 304 304 305 305 305 305 306 307 309 309 309 309 309 309 308 308 308 309 309 309 309 309 310 310 310 309 309 309 309 308 309 310 310 310 310 310 310 309 310 311 312 311 312 312 312 313 313 313 312 311 311 311 312 312 311 311 310 309 309 309 309 309 309 308 307 306 306 306 306 305 305 305 305 304 304 303 302 301 301 301
306 306 306 306 305 305 304 304 304 305 305 305 306 308 309 310 309 309 309 308 308 308 308 308 308 308 308 308 309 309 309 309 308 309 309 309 309 309 309 309 309 310 310 309 309 310 310 310 310 311 312 313 312 311 311 311 310 310 311 311 311 310 309 308 309 309 308 308 308 307 306 306 305 305 305 305 305 304 304 304 303 302 301 300 300 300
306 306 306 306 305 305 304 304 304 304 304 305 306 308 309 308 308 307 306 305 306 308 308 307 307 307 308 308 308 308 308 307 307 308 309 309 308 308 308 308 310 311 310 310 310 310 310 308 309 312 313 312 311 311 310 310 310 310 311 311 310 309 308 308 308 308 308 307 307 306 305 304 304 304 304 304 304 304 303 303 302 301 300 300 300 299
305 305 305 304 304 304 304 304 303 304 304 305 306 307 307 308 307 306 305 305 305 306 307 307 306 307 308 308 307 308 307 307 307 308 308 308 307 307 308 308 309 310 310 310 310 310 310 310 311 313 312 311 311 311 310 310 311 310 311 311 310 309 308 308 308 307 307 306 305 304 303 303 303 303 303 303 303 302 302 301 301 300 299 299 299 298
305 305 304 304 304 304 304 303 303 303 305 307 307 307 307 307 306 305 305 305 305 305 306 306 306 306 306 306 305 306 307 307 307 308 307 307 307 307 308 308 308 309 309 309 309 310 311 311 312 312 312 311 312 312 311 311 311 310 311 311 310 308 308 308 307 306 305 304 304 302 302 301 301 301 301 301 301 301 301 300 300 299 298 298 298 297
304 304 303 303 303 303 303 303 303 303 306 307 306 306 306 305 304 304 304 304 304 305 305 306 306 306 306 305 304 305 305 306 307 307 306 306 307 307 308 307 306 307 308 308 309 309 310 310 310 310 311 311 312 312 311 310 310 310 310 310 309 308 308 307 306 305 304 303 302 301 300 300 299 299 300 300 301 301 300 300 299 299 298 298 297 297
303 303 302 303 303 302 302 302 302 302 304 305 304 304 305 305 304 303 303 303 304 305 305 306 307 307 307 306 306 306 306 306 306 306 306 306 306 307 307 306 305 306 308 309 308 308 308 309 309 310 311 311 311 310 309 308 309 310 310 309 308 308 307 306 305 304 303 302 301 300 300 300 299 300 300 300 300 300 299 299 299 298 298 297 297 296
303 302 301 302 302 302 301 301 302 302 304 304 303 303 303 304 303 303 303 303 304 305 305 306 306 306 307 307 306 306 306 306 306 306 306 306 306 306 306 305 305 306 308 308 307 307 307 307 308 309 310 310 309 309 308 307 308 309 309 308 308 307 306 305 305 303 303 302 301 300 300 300 299 299 299 299 299 298 298 299 299 298 297 297 296 296
302 302 302 301 301 301 301 302 302 303 303 303 302 302 302 302 303 303 303 304 304 305 305 305 305 306 306 306 306 306 306 306 306 306 305 306 306 306 305 305 304 305 306 306 306 306 307 307 308 309 310 309 309 307 307 308 308 308 308 308 307 306 305 304 304 303 302 302 301 300 300 299 299 299 299 299 298 298 298 298 298 298 297 297 296 295
302 302 302 301 300 301 301 302 302 303 302 302 302 302 302 302 303 303 304 305 304 303 303 304 304 304 305 305 305 305 305 305 305 305 305 305 305 305 305 304 304 304 304 304 305 306 307 307 307 308 309 309 308 307 307 308 308 308 308 307 306 305 305 304 303 303 302 301 300 300 299 299 299 299 299 299 299 299 298 298 298 297 297 296 295 294
301 303 302 301 301 301 301 302 302 302 302 302 302 302 301 302 303 304 304 304 304 303 303 303 303 304 304 304 305 305 304 304 304 304 304 305 305 305 305 304 304 304 304 305 306 307 307 307 307 307 308 309 308 306 307 307 307 307 307 306 305 305 304 304 303 302 301 301 300 300 299 299 299 299 299 299 299 299 298 298 298 297 297 296 295 293
300 301 300 299 300 300 301 301 302 301 301 301 301 302 302 302 303 303 303 303 303 304 304 304 304 304 305 305 304 304 303 303 303 303 304 304 304 304 304 304 304 305 305 306 306 307 307 306 307 307 308 308 307 306 306 307 307 306 306 305 304 304 304 303 303 302 301 300 300 300 300 300 300 300 299 299 299 298 298 298 298 297 297 296 295 294
299 299 299 298 298 299 299 300 300 301 302 302 302 302 302 302 302 302 302 302 303 304 305 304 304 305 305 304 303 303 303 302 302 302 303 304 304 304 304 304 305 306 306 306 306 307 306 306 306 307 307 308 307 306 306 306 306 306 305 305 304 304 303 302 301 301 301 301 301 300 300 300 300 300 299 299 299 298 298 298 298 298 297 296 296 294
299 299 299 298 298 298 299 300 300 301 301 301 301 302 302 302 301 301 301 302 303 304 304 304 304 304 304 303 303 302 302 301 301 302 303 304 305 305 304 304 305 306 307 306 306 306 306 306 306 306 307 307 307 306 306 306 305 305 305 304 303 303 302 301 301 301 301 301 301 301 300 300 300 300 299 299 299 299 299 298 297 297 297 296 296 295
299 299 299 298 298 298 299 300 301 301 301 301 301 301 301 302 301 301 301 302 303 304 304 304 304 303 303 302 302 302 302 301 301 302 303 304 304 304 304 305 306 306 306 306 305 305 305 306 306 305 306 307 306 305 306 305 305 304 304 303 303 303 302 301 302 302 302 302 302 301 301 300 300 300 299 299 299 299 299 298 297 297 296 295 295 294
Wind_Speed
8 6 5 7 5 1 4 9 4 6 8 10 9 8 9 5 5 2 7 9 3 3 7 8 9 11 11 11 12 12 17 14 14 14 13 13 14 16 16 17 16 15 15 16 18 24 25 23 23 22 22 22 21 19 19 18 16 14 13 10 8 7 5 5 5 6 7 6 4 4 4 5 4 5 7 5 6 6 4 7 7 8 8 10 11 12
4 5 7 10 3 6 7 5 4 7 7 8 8 8 8 5 7 5 6 7 3 1 5 8 9 13 13 12 13 13 13 14 15 14 14 15 15 15 17 17 17 16 15 15 16 21 25 27 27 25 24 23 22 21 20 20 18 16 14 11 10 8 7 8 7 8 7 6 5 4 2 4 1 3 6 5 11 14 10 8 7 5 6 10 11 12
5 8 11 6 1 4 4 5 6 7 7 8 7 7 7 5 8 7 7 8 4 3 4 8 10 12 14 15 14 14 13 12 19 19 16 17 17 17 18 17 17 16 15 16 15 18 23 28 28 26 25 24 23 22 22 21 19 18 15 14 12 11 10 10 9 7 6 6 4 4 3 1 1 3 9 11 15 19 14 9 8 5 5 10 10 11
6 6 7 4 3 1 2 2 4 5 4 6 6 7 7 7 9 7 4 5 2 2 5 7 8 10 11 13 13 14 15 12 16 23 21 20 20 19 19 18 19 18 18 18 17 19 22 26 28 27 27 25 23 23 24 22 20 19 17 15 14 12 11 10 9 8 8 6 4 4 3 2 1 3 8 9 12 17 16 10 6 6 8 11 9 8
9 1 7 6 2 4 5 3 3 3 4 7 8 8 8 9 9 6 1 2 3 3 6 8 7 7 10 12 12 10 13 15 15 18 21 22 22 21 21 20 21 21 22 21 20 21 21 26 26 28 28 26 25 25 25 23 22 20 18 17 16 14 12 12 10 10 9 6 6 4 2 4 6 6 3 5 9 13 14 10 6 8 11 9 6 7
8 4 7 4 3 4 6 5 5 4 5 7 9 11 11 12 9 8 5 2 3 6 7 8 6 6 9 13 13 10 10 14 16 17 17 20 23 23 23 23 24 22 21 18 16 17 19 24 23 26 28 26 27 26 25 24 23 21 19 18 17 16 14 14 12 10 9 7 6 2 2 3 4 3 3 5 9 12 13 12 10 8 9 9 8 6
5 8 4 5 4 5 7 7 8 8 7 6 6 9 12 11 7 8 10 5 5 7 5 9 5 6 7 9 9 10 11 13 14 14 16 19 20 22 24 24 23 22 21 20 18 18 17 22 22 23 26 27 28 26 25 24 23 21 20 19 19 18 16 15 14 11 10 8 6 4 5 5 4 6 7 7 8 10 12 13 13 11 9 9 8 7
5 9 7 5 5 6 7 7 9 10 9 4 2 7 9 8 6 8 10 7 7 7 4 10 8 7 6 9 10 8 12 13 12 12 13 16 18 20 21 20 21 22 23 23 21 21 19 21 24 23 25 27 27 26 25 25 23 22 21 20 20 19 16 16 16 13 10 8 8 8 8 6 6 8 8 8 7 8 10 11 12 12 11 8 4 6
2 5 7 5 7 6 7 9 11 11 9 6 3 5 9 8 7 7 8 8 8 7 6 9 10 7 6 8 10 12 11 10 10 12 12 14 16 17 18 18 19 21 21 19 20 21 19 20 23 23 25 26 26 26 26 25 24 23 21 21 21 19 17 18 17 14 11 9 11 10 6 6 8 8 5 4 4 5 7 8 9 10 10 10 7 5
4 7 7 7 7 6 9 12 11 11 8 4 2 3 7 8 7 7 8 8 8 8 8 10 10 7 6 7 8 9 9 7 9 12 11 12 14 15 15 17 17 16 17 17 18 19 19 20 22 23 25 26 25 25 26 25 24 23 23 22 22 20 19 19 19 16 13 12 13 11 7 9 9 7 3 3 5 5 6 6 7 8 8 8 8 8
10 7 5 7 8 8 12 11 8 6 7 1 2 4 7 8 7 7 7 6 7 8 10 13 13 10 7 6 7 6 6 8 7 6 7 10 14 14 14 15 15 14 15 17 18 19 19 19 22 24 24 25 26 26 26 25 24 23 24 23 22 21 20 20 20 18 15 14 14 12 10 11 10 9 7 7 7 6 5 4 5 6 5 5 6 8
12 7 5 7 11 11 12 10 7 4 6 4 4 6 7 7 7 6 6 6 7 7 10 13 15 14 9 6 7 7 1 6 3 3 3 6 12 16 15 15 15 15 15 17 19 21 22 22 23 25 25 25 26 27 26 25 24 24 24 25 23 22 21 21 20 18 17 16 15 13 13 13 12 12 11 8 8 8 7 7 6 6 4 4 5 6
10 10 9 10 12 12 10 8 7 6 6 6 6 6 7 6 6 7 7 7 7 9 11 14 14 11 8 6 9 10 5 4 5 3 6 9 8 14 15 15 15 15 16 18 19 22 26 26 26 26 26 27 28 28 27 25 25 25 24 25 25 23 23 22 20 19 18 17 16 15 16 16 15 14 13 11 10 10 9 8 7 6 6 5 5 6
7 9 10 9 9 12 11 8 6 6 7 8 7 7 7 6 6 7 7 7 8 8 9 12 12 7 5 5 9 12 12 9 8 9 9 13 9 10 13 14 15 15 15 17 19 22 27 29 27 28 28 29 30 29 28 26 25 26 25 25 24 23 22 22 21 20 20 18 16 17 18 18 17 16 15 14 13 12 11 9 9 9 9 8 8 9
7 6 7 8 6 11 12 9 8 8 6 9 9 8 8 7 7 7 6 6 6 4 4 7 6 4 3 4 5 9 11 11 11 11 11 11 11 9 12 13 15 17 17 18 19 20 27 31 28 29 29 29 31 29 27 27 27 27 26 25 24 23 22 22 22 21 20 18 17 17 18 18 18 18 17 16 14 14 13 11 11 11 11 11 11 11
9 8 6 8 8 9 10 10 11 11 8 6 7 8 8 7 8 7 6 8 8 6 5 4 3 4 5 6 7 8 9 10 11 9 7 10 11 10 11 12 13 14 16 19 20 19 25 34 31 31 32 30 31 30 27 29 30 28 27 26 25 23 22 23 23 21 19 17 16 17 17 18 18 18 18 17 15 16 15 13 12 12 13 13 13 13
7 8 6 8 9 7 8 10 12 12 7 4 5 7 8 8 8 7 6 8 7 7 7 5 5 6 7 8 9 11 12 11 10 10 9 10 12 12 11 11 12 14 15 16 17 17 21 34 35 33 33 32 31 31 30 30 30 29 28 27 25 22 22 23 22 20 17 15 15 16 16 17 18 19 19 17 16 17 16 14 13 13 14 14 15 15
6 7 9 11 10 7 9 13 14 14 11 7 6 7 7 8 7 5 5 6 7 7 6 6 8 8 8 7 8 11 12 11 11 10 8 7 9 12 12 12 13 15 16 15 15 16 18 28 36 34 32 33 33 31 32 32 31 29 28 26 25 23 22 22 21 19 16 14 14 15 16 17 18 19 19 18 18 18 17 15 15 14 15 15 15 16
6 7 8 11 13 9 9 12 13 14 15 12 10 8 6 7 6 6 6 5 7 7 5 7 10 9 9 7 7 10 9 8 9 6 5 9 8 10 13 13 14 17 18 16 15 17 19 23 30 34 32 32 33 32 30 31 30 29 28 25 25 23 20 20 20 18 16 14 14 15 15 16 17 18 19 19 19 19 18 17 16 16 16 16 16 17
5 7 7 8 11 10 7 8 9 8 10 12 12 9 8 8 7 8 7 5 7 7 6 8 9 8 8 8 9 11 8 5 6 3 4 9 10 10 11 11 14 17 17 16 16 17 20 22 25 30 33 31 30 31 29 30 31 31 27 25 24 22 19 20 21 19 17 15 15 15 15 16 16 17 19 19 20 20 19 18 18 17 17 17 18 20
5 6 7 8 10 9 6 7 8 8 8 9 9 8 8 7 7 8 8 7 7 7 6 7 7 7 6 6 7 8 5 4 5 4 5 8 9 11 15 17 18 18 17 14 15 17 18 20 23 26 30 28 26 29 32 32 31 29 26 26 27 24 21 22 23 21 18 16 15 15 16 16 16 17 18 19 20 20 19 19 18 18 18 18 19 20
3 5 7 7 8 8 9 10 12 12 11 9 7 7 7 7 6 6 7 8 7 7 7 7 7 7 5 6 8 7 5 6 9 9 9 9 8 8 14 20 20 18 19 18 17 18 19 19 20 22 25 25 24 27 33 34 31 28 26 28 29 26 23 24 24 22 18 16 16 16 16 17 17 17 18 19 20 19 19 19 18 18 18 19 20 21
3 4 7 9 9 10 14 15 15 16 16 14 11 9 8 8 7 6 6 7 7 8 8 7 7 7 6 6 9 9 7 8 12 13 13 14 14 13 13 17 19 15 18 21 21 20 21 20 19 20 21 23 25 28 32 33 29 27 28 30 29 27 25 25 25 22 18 17 17 17 17 18 18 18 19 20 20 19 18 17 17 17 18 19 20 20
4 3 6 9 9 11 16 17 16 17 16 13 11 10 10 11 10 9 8 6 6 8 8 7 7 7 5 5 8 10 11 11 11 12 13 13 15 16 18 20 25 25 17 18 24 24 22 21 20 20 22 24 27 30 32 30 28 28 29 29 29 27 24 25 25 22 19 18 18 18 19 19 19 19 20 20 20 18 17 16 16 16 17 18 18 19
3 4 5 7 8 8 10 10 10 10 8 6 7 9 10 11 11 10 7 6 6 9 11 8 7 7 5 7 10 12 14 14 15 15 15 15 15 15 16 17 21 27 27 22 22 23 23 22 22 22 23 25 27 30 31 30 29 28 29 29 27 25 23 24 25 23 20 20 20 20 20 19 19 19 19 19 18 17 15 15 15 15 16 17 18 18
3 5 5 6 7 7 7 6 4 4 5 6 8 10 11 11 12 9 7 7 7 10 11 9 7 9 8 11 14 15 14 14 16 19 19 20 20 19 19 19 17 20 25 27 26 25 24 25 26 24 23 25 26 26 28 28 27 26 27 27 25 23 24 25 25 23 21 21 21 21 20 19 19 19 18 18 17 15 15 14 14 15 15 16 17 19
5 6 7 9 10 10 11 11 11 11 9 10 12 14 14 13 14 11 8 8 8 8 9 9 9 11 12 14 16 16 15 13 14 17 20 22 23 23 23 21 18 16 20 24 24 25 26 25 26 26 25 25 25 25 26 26 26 25 25 25 24 24 25 25 25 23 21 22 22 21 20 19 19 18 17 16 15 14 14 14 14 14 15 16 18 22
4 7 9 13 15 16 18 18 18 16 14 15 15 16 17 17 17 14 10 11 11 9 10 10 10 11 11 14 18 18 17 15 13 16 20 23 24 25 25 25 24 22 21 22 24 26 26 25 27 26 26 28 25 24 26 26 26 25 25 25 24 25 26 26 25 23 22 23 22 21 20 18 17 17 15 15 15 14 14 13 13 14 16 19 22 25
6 8 11 14 17 20 19 19 19 16 15 16 17 18 19 19 18 15 13 15 14 10 10 11 12 12 11 15 20 20 17 17 18 21 23 24 27 28 26 26 28 28 26 25 27 28 27 26 24 23 25 28 24 23 23 23 25 25 25 25 24 25 26 26 24 23 22 23 22 21 19 17 16 16 15 15 15 14 13 13 14 16 20 23 25 25
6 7 11 14 17 19 19 18 17 17 17 17 18 21 21 19 18 17 16 17 17 16 15 15 15 14 13 16 20 21 22 23 24 26 26 25 27 28 26 26 27 28 29 28 30 29 28 27 24 21 26 29 24 23 21 18 21 21 22 25 24 24 26 25 23 23 22 22 22 21 19 17 17 17 16 15 14 12 12 13 15 18 22 24 23 23
7 7 11 12 13 16 17 16 16 17 17 18 21 23 21 18 18 17 15 14 14 15 14 12 12 12 11 14 18 23 26 26 24 24 25 26 26 26 26 26 25 25 27 29 29 30 31 32 29 24 23 28 28 24 21 17 16 19 21 22 23 24 25 23 21 21 22 22 21 20 18 16 16 15 14 13 11 11 12 14 17 19 22 22 20 19
7 7 9 9 10 12 13 14 17 17 17 20 21 19 16 15 14 13 13 11 11 12 12 11 10 9 9 12 16 21 23 22 22 24 24 23 24 24 25 26 25 24 25 29 30 28 28 30 31 25 20 21 27 24 22 20 16 19 21 21 22 23 22 22 20 20 21 20 19 18 16 15 15 13 12 10 10 11 13 15 17 19 19 19 17 18
8 7 8 9 10 12 13 14 15 14 14 15 13 10 11 12 13 14 13 13 13 11 10 10 9 9 11 14 15 17 18 19 21 21 20 21 23 24 25 26 28 27 26 28 30 30 28 24 28 30 26 22 23 24 21 22 18 20 22 21 22 22 21 21 20 19 20 19 18 17 16 15 14 12 10 10 11 12 14 16 17 17 17 16 17 19
10 10 9 9 9 12 14 13 12 12 13 10 6 6 10 13 15 15 13 14 15 13 11 11 12 13 14 14 15 16 16 17 19 20 21 22 22 23 25 28 29 29 28 28 28 30 32 26 21 28 31 28 23 21 19 19 19 21 22 22 23 21 20 21 19 19 19 18 17 16 15 14 12 10 10 10 11 13 14 15 16 15 15 15 17 20
9 9 8 8 9 10 11 10 10 12 12 10 9 10 14 15 16 17 17 17 17 16 15 15 15 16 16 16 17 16 13 15 18 20 21 22 22 22 24 25 26 27 28 28 27 30 33 29 23 23 30 31 28 26 22 19 20 22 22 22 22 21 21 20 18 18 19 17 15 14 13 12 10 8 8 10 12 13 14 15 15 14 14 16 19 22
10 9 8 8 8 9 9 9 10 11 12 14 14 12 13 12 10 11 12 14 15 15 15 14 14 13 14 15 14 13 14 16 17 18 20 21 19 19 20 22 25 27 29 29 27 28 31 29 26 24 28 28 26 26 24 22 22 22 22 23 22 21 21 20 18 18 17 16 14 11 10 8 8 8 8 11 12 13 13 14 14 14 15 19 22 25
13 11 9 9 9 9 10 10 11 12 13 14 11 6 5 4 5 5 5 9 13 12 11 11 10 10 12 14 14 14 15 15 13 14 16 15 15 19 22 25 27 28 29 31 31 31 32 31 29 28 27 24 22 22 23 23 23 22 22 23 21 21 21 19 17 18 17 15 13 9 7 7 7 8 10 11 11 12 13 13 14 15 17 21 22 22
16 13 10 9 9 9 10 11 10 11 11 10 6 5 9 8 7 5 4 8 8 7 9 10 9 10 11 13 16 17 14 10 8 10 11 12 16 22 25 28 28 28 30 33 34 36 37 34 31 32 32 29 24 21 21 22 23 23 23 22 21 21 20 18 17 17 16 14 11 8 7 7 8 9 10 11 11 11 12 14 15 16 17 20 22 22
16 14 10 9 9 9 10 11 11 9 8 9 6 6 10 7 6 4 6 7 3 7 9 9 8 8 7 10 15 16 11 7 8 9 13 18 22 24 27 28 27 28 31 31 31 34 36 33 30 29 30 30 27 23 22 23 22 21 21 22 21 20 18 18 17 15 14 13 12 9 7 7 8 9 9 10 10 11 13 14 16 16 18 20 22 24
12 10 9 11 12 11 11 11 9 8 8 10 5 6 9 6 5 2 8 4 6 9 10 11 13 12 9 11 15 12 7 7 10 13 19 23 24 24 25 25 26 27 28 29 30 29 28 26 25 24 23 24 25 25 23 22 22 19 18 20 20 19 18 17 15 14 14 15 13 8 4 6 7 8 8 9 10 12 14 15 15 16 19 21 23 24
9 8 9 10 12 13 12 10 8 8 5 3 3 5 4 2 0 4 7 4 8 12 11 9 12 13 13 14 14 12 13 17 19 23 26 26 25 26 24 24 28 28 26 26 24 17 14 12 13 18 19 18 20 22 19 18 19 16 15 18 19 18 16 15 14 14 14 12 7 2 3 5 7 8 9 10 11 13 14 14 14 16 19 21 22 22
7 6 8 9 10 10 9 9 10 8 1 5 3 1 1 2 4 5 7 11 14 15 12 8 10 13 13 14 14 15 20 24 25 26 28 26 26 27 25 27 33 32 28 26 21 13 11 11 11 14 14 12 16 18 15 15 15 14 15 17 17 16 15 14 14 12 9 7 4 1 4 5 7 9 9 10 11 12 13 14 14 17 20 22 21 21
7 7 8 8 7 8 8 9 9 6 2 3 3 3 2 2 8 11 13 16 17 15 13 12 11 11 11 13 14 16 20 23 24 26 27 27 27 27 28 32 34 28 23 22 21 16 13 14 16 13 10 10 12 12 10 11 13 15 16 17 17 16 14 12 10 8 7 5 2 2 3 5 8 9 9 10 11 12 14 14 14 18 21 21 19 21
6 6 7 6 5 6 8 6 5 6 5 3 5 6 6 9 14 17 17 17 16 14 13 14 14 13 12 13 16 18 19 22 23 24 25 26 27 28 31 33 27 18 13 13 16 18 15 14 17 13 8 9 8 8 8 10 15 17 17 18 18 15 12 10 8 8 7 5 2 1 2 4 5 7 8 9 11 12 12 13 14 17 19 19 20 22
7 8 8 7 6 6 8 8 10 14 17 16 16 17 17 18 18 18 17 16 14 12 12 14 17 17 17 18 19 20 21 21 22 23 24 25 26 27 30 27 17 10 10 8 9 13 12 12 15 11 8 9 7 9 10 12 15 17 17 18 19 16 13 10 9 9 8 6 4 2 1 2 3 6 7 8 10 11 11 12 15 17 19 21 23 25
13 12 9 7 7 8 11 14 16 19 21 22 20 18 20 21 17 12 10 11 12 12 13 15 18 20 21 21 20 21 22 22 22 24 25 25 25 25 26 21 12 10 15 13 8 8 11 14 15 12 8 8 9 10 10 12 15 17 18 18 18 15 12 10 10 10 8 6 5 2 0 1 3 7 7 8 11 13 13 14 16 16 18 22 25 26
10 7 5 5 8 8 9 11 14 17 20 21 20 20 22 20 13 8 6 9 14 16 15 15 17 17 19 19 19 21 23 23 23 24 24 23 25 25 22 17 13 14 19 20 15 13 15 16 14 10 8 9 9 9 11 14 16 17 17 17 16 13 11 11 12 10 7 6 5 2 1 2 6 8 9 10 13 15 15 16 15 16 19 22 23 27
7 5 5 8 9 8 10 14 19 23 24 24 23 20 16 12 10 9 10 12 15 16 15 15 15 13 14 17 19 22 25 24 23 23 22 23 24 21 16 14 14 16 17 18 17 16 16 14 11 9 9 10 10 10 12 15 17 17 15 14 13 12 12 12 11 9 8 7 5 3 2 4 7 10 12 13 15 16 17 18 18 18 21 22 23 27
13 11 10 11 10 11 13 16 19 21 21 21 20 15 12 11 13 16 17 17 17 15 13 14 13 11 13 17 19 22 24 24 21 19 18 19 19 17 13 12 13 15 15 13 13 14 13 11 10 11 11 12 12 11 13 16 17 17 15 13 12 13 13 13 11 9 7 6 6 3 4 7 8 10 13 14 16 18 19 19 20 19 20 20 22 26
13 11 10 10 10 10 10 11 11 10 10 14 17 18 16 13 14 18 20 20 17 13 12 12 12 12 14 16 18 20 20 18 17 16 14 14 13 12 11 10 11 13 13 11 10 11 10 9 9 10 13 14 13 12 14 15 16 18 16 13 13 14 12 10 10 9 7 6 6 2 6 8 8 11 14 15 17 20 19 19 20 19 18 20 22 25
14 12 12 11 9 10 15 18 16 12 13 16 20 21 19 14 13 16 18 16 14 13 13 12 13 14 15 16 17 17 15 14 15 13 9 9 9 10 11 10 10 12 13 12 12 12 11 9 8 9 12 14 14 14 16 15 16 18 16 13 14 14 10 7 9 9 7 5 3 2 7 9 10 13 14 15 17 18 17 19 20 19 19 21 22 24
Wind_Direction
207 220 224 228 233 336 277 237 250 359 354 336 323 310 307 289 256 270 103 120 148 228 224 234 251 261 259 261 264 215 180 192 217 221 224 218 208 203 208 214 215 219 213 202 195 185 181 184 183 181 181 181 181 180 179 175 175 183 189 190 193 195 172 121 120 152 147 137 128 108 91 69 65 51 36 2 350 359 306 273 270 271 264 251 248 249
213 247 245 238 232 50 13 322 7 8 343 330 316 299 301 299 289 296 108 110 94 144 252 267 267 272 272 264 265 248 205 188 203 216 220 222 222 218 217 216 216 218 218 215 204 194 189 185 183 182 181 182 183 185 186 182 179 184 188 188 197 203 182 173 187 187 180 178 157 155 122 76 60 355 29 12 7 10 354 338 324 300 276 262 257 253
213 241 246 245 44 75 36 1 357 352 339 325 309 290 289 287 283 263 168 144 139 165 250 270 273 273 270 265 257 250 243 206 191 203 219 225 230 231 225 223 226 222 223 224 214 215 205 186 180 180 182 186 187 189 191 189 186 186 186 187 201 210 199 198 196 193 212 221 200 217 267 46 228 323 18 17 10 11 4 354 343 329 287 279 278 268
243 239 217 156 79 236 263 348 338 341 319 290 282 278 274 259 268 266 158 113 46 317 287 282 278 275 267 264 257 240 247 244 201 194 205 220 232 239 235 231 231 227 234 230 221 234 215 182 178 181 184 190 190 193 192 190 189 189 189 189 202 211 209 214 199 198 230 246 248 255 290 343 52 57 42 27 9 6 5 4 342 311 303 305 299 277
262 167 128 134 147 248 265 277 288 300 275 257 247 256 267 260 278 305 52 78 344 278 256 266 274 270 257 250 250 235 231 246 240 215 206 211 221 233 240 243 238 229 232 227 220 233 206 173 179 185 186 191 191 194 193 192 192 192 192 190 200 210 208 220 218 221 242 253 259 272 5 35 69 93 73 15 5 5 8 8 340 312 313 318 311 282
253 137 126 179 191 215 251 249 235 229 258 263 239 234 246 256 282 312 303 280 292 270 225 224 254 271 260 243 230 224 221 226 236 237 228 219 217 223 229 236 240 235 234 229 222 229 196 172 185 188 186 191 191 194 195 196 196 193 196 193 198 208 208 222 232 235 246 250 259 276 74 75 98 148 261 340 355 359 6 9 4 341 322 325 336 321
183 136 162 237 200 211 242 239 234 229 241 260 257 246 235 234 252 286 292 282 275 286 188 175 233 282 288 272 233 209 215 219 218 223 232 234 229 228 227 225 228 228 231 231 228 233 204 181 193 193 189 192 192 195 197 200 199 193 196 196 199 209 210 221 234 238 242 244 240 201 184 210 199 214 259 307 337 352 2 8 13 10 356 346 344 340
149 158 183 229 222 228 245 243 235 236 250 255 314 291 261 237 238 254 273 268 260 280 193 179 229 266 278 287 278 241 215 207 206 210 220 233 239 242 237 225 222 222 224 223 218 226 217 193 197 196 192 194 193 195 197 198 198 192 194 196 202 211 212 222 236 239 236 230 220 214 217 222 204 214 257 301 327 351 1 6 13 14 13 15 354 322
332 209 189 218 236 239 248 245 229 218 238 249 213 267 270 263 257 247 254 253 247 261 244 221 233 247 250 257 266 259 232 194 192 212 217 221 232 244 242 231 229 222 216 215 207 212 217 200 195 194 193 194 194 195 196 197 196 193 194 197 204 207 208 223 236 238 232 216 214 225 223 201 205 223 262 304 305 339 356 359 6 10 11 14 13 353
263 223 208 232 234 239 241 242 242 218 215 278 318 263 266 270 269 249 247 253 248 246 250 249 247 253 264 254 247 244 229 200 201 219 218 209 218 234 233 225 228 221 207 205 198 201 211 202 191 192 193 193 194 196 196 197 197 195 194 198 206 204 205 223 235 239 235 217 221 232 215 200 214 227 218 214 247 295 337 346 354 2 5 2 0 360
257 211 200 242 236 241 242 247 269 226 188 236 322 258 250 247 245 239 240 252 259 253 248 250 251 252 260 262 263 255 205 196 222 242 221 201 207 220 220 212 214 214 203 196 190 193 206 203 190 189 191 190 193 195 194 195 196 198 196 198 206 204 207 225 234 240 241 231 234 238 225 221 228 234 232 235 250 275 309 320 329 342 350 341 334 339
251 225 196 231 240 249 253 255 267 223 197 223 238 246 254 235 223 228 232 235 246 255 251 248 245 243 249 243 256 296 73 153 193 300 277 222 202 203 208 208 206 209 206 195 188 192 198 197 188 185 188 189 191 192 191 193 196 198 198 200 206 204 207 224 235 238 242 245 246 243 240 242 243 249 251 250 247 255 281 298 305 319 326 315 313 321
235 235 220 211 217 231 247 251 241 219 214 236 237 237 251 247 228 224 227 227 237 243 244 253 252 245 256 245 248 287 305 191 193 222 283 283 224 194 198 204 200 205 210 197 193 199 195 189 185 184 188 189 190 192 191 194 199 200 201 203 207 206 206 218 234 239 240 249 253 249 251 253 251 254 254 249 248 255 273 289 292 299 301 289 281 283
231 233 230 222 205 206 225 241 232 217 200 211 232 236 240 249 248 243 238 232 241 240 233 250 264 266 276 253 243 264 271 257 232 206 239 276 262 202 198 207 200 202 212 205 205 205 190 183 185 185 189 190 188 192 195 198 205 203 204 208 209 208 207 215 232 242 243 249 255 253 253 254 252 251 249 249 251 255 264 272 277 287 295 291 282 280
260 247 224 234 213 186 207 236 257 266 238 210 221 233 243 255 261 262 261 257 270 284 242 236 246 247 268 272 257 268 280 282 264 220 209 247 265 234 212 218 210 203 209 210 219 214 185 179 186 186 188 191 189 194 199 201 206 206 206 211 212 208 207 215 231 242 246 250 253 252 250 251 251 249 247 246 245 249 257 264 273 282 290 292 291 288
267 263 234 240 234 197 203 227 247 265 269 247 235 233 242 259 268 274 280 284 295 305 282 250 230 223 238 257 261 273 283 282 281 268 225 221 243 247 229 230 230 222 215 207 217 223 191 179 184 185 186 192 195 200 204 200 203 208 210 213 216 213 209 217 231 241 248 252 251 251 250 249 248 247 246 243 238 244 254 263 271 279 286 291 292 290
267 270 276 264 241 213 226 241 244 248 256 275 270 255 247 247 259 277 286 285 282 279 274 266 261 254 247 243 239 251 261 259 260 263 251 224 218 229 230 224 231 241 240 222 216 224 197 181 183 187 189 196 202 205 205 201 203 209 211 214 218 217 211 218 232 241 249 252 250 252 252 249 246 242 241 239 237 244 254 262 268 276 282 287 290 291
288 280 284 280 261 223 227 246 255 253 251 255 258 266 266 254 256 265 265 265 257 258 260 244 245 251 256 254 240 241 250 262 265 251 257 266 229 226 233 224 226 234 241 240 225 223 211 189 186 190 193 198 202 204 201 200 204 209 211 215 221 221 214 216 230 241 248 250 249 251 252 249 245 242 239 237 239 247 256 262 268 274 279 284 289 291
290 279 272 273 276 266 238 243 251 250 254 266 275 284 280 261 256 245 240 251 251 255 260 251 250 250 253 262 264 257 249 269 289 276 269 281 260 239 238 230 233 235 233 237 231 225 224 208 194 190 192 197 198 199 199 201 204 206 209 216 222 223 217 216 227 238 243 245 246 249 252 251 247 243 240 238 241 249 256 261 267 273 278 283 288 291
281 282 273 264 277 287 276 262 261 255 255 263 267 268 264 263 268 260 255 257 250 251 260 261 261 259 257 255 256 266 269 264 279 289 271 272 270 273 271 255 248 246 240 236 236 236 232 223 209 194 190 193 196 198 203 205 203 201 207 214 216 217 215 213 222 233 238 242 245 248 250 249 247 244 242 241 243 249 255 260 267 273 278 285 291 296
279 270 274 274 277 279 269 255 254 252 249 250 255 260 259 264 278 277 267 260 259 263 265 267 264 258 265 274 269 278 302 300 282 287 274 260 253 263 274 272 263 259 264 262 251 251 245 229 217 201 189 190 200 206 205 202 200 202 211 214 211 214 212 209 219 231 236 240 244 248 249 246 246 245 243 244 247 250 255 261 268 275 282 291 298 303
283 273 277 278 273 265 259 262 268 267 264 264 267 267 262 258 267 274 263 257 263 269 271 273 269 262 273 304 310 313 331 337 335 334 315 299 290 274 268 270 264 250 254 268 264 255 253 237 217 204 193 193 208 211 200 196 201 207 213 211 210 214 212 211 219 227 233 239 241 243 245 243 243 243 242 245 250 253 258 265 273 281 290 298 304 307
24 289 278 276 271 270 272 274 278 278 278 275 268 265 268 263 257 256 261 268 269 270 277 278 272 268 271 290 307 316 322 338 351 349 332 328 340 345 330 316 308 279 244 250 258 253 250 241 223 210 202 201 210 206 193 193 202 208 211 210 211 215 212 211 219 225 230 235 234 235 236 235 237 238 241 244 250 256 262 268 279 288 296 303 306 306
24 271 264 275 273 273 274 271 265 262 264 268 265 263 262 261 263 264 274 289 279 268 273 272 266 260 259 288 308 318 321 321 325 326 322 326 338 341 341 337 329 318 293 264 259 255 249 243 233 220 210 208 209 199 191 196 201 205 211 211 212 215 209 206 211 217 224 226 225 228 229 229 230 233 239 244 249 256 264 272 282 289 296 301 302 300
345 267 267 278 277 277 272 263 255 251 259 278 286 284 279 277 281 282 289 298 277 263 263 261 265 266 282 319 316 315 319 312 303 305 304 305 312 316 319 323 320 315 313 305 286 270 258 250 243 233 221 216 208 195 193 200 202 203 209 209 208 207 202 200 203 206 212 215 216 220 224 224 225 229 236 243 250 256 263 272 281 289 293 297 298 295
303 277 278 271 267 271 265 258 279 313 329 318 303 298 296 290 286 284 282 276 263 263 266 263 269 274 289 308 302 298 304 303 300 303 302 300 304 307 305 305 301 296 299 304 302 296 283 263 251 245 232 223 214 198 191 195 197 200 204 203 202 199 194 196 201 202 203 206 207 213 220 223 223 227 233 240 249 256 262 272 281 287 290 291 293 292
295 279 274 267 263 266 271 280 304 320 312 294 288 285 283 281 280 278 269 264 267 270 268 264 269 277 286 293 291 287 289 292 296 298 300 302 305 306 303 298 291 283 286 287 286 292 293 278 268 261 246 238 229 209 197 196 198 200 201 199 200 198 194 195 200 201 200 202 204 209 216 220 223 228 232 237 245 252 259 271 277 281 284 285 286 288
275 269 260 264 264 265 272 278 288 295 287 283 285 280 277 276 275 273 267 270 277 276 270 270 274 279 283 284 283 283 285 290 296 297 300 303 301 299 297 295 288 280 278 275 269 272 278 279 286 283 262 252 239 216 209 209 204 203 202 199 199 198 194 194 197 198 196 199 204 208 212 216 221 225 230 233 239 248 257 268 275 278 284 287 289 291
254 260 254 261 263 263 268 272 276 280 276 275 275 271 269 268 267 270 274 277 279 273 271 276 278 277 276 275 275 278 284 290 295 298 298 296 292 289 285 285 284 278 272 267 264 264 262 262 276 290 282 267 243 221 223 215 201 203 203 195 194 194 191 193 196 194 193 197 202 205 207 210 213 215 221 229 239 252 263 271 279 285 290 293 295 295
239 256 253 259 266 267 267 270 276 279 278 275 272 268 266 267 271 275 275 275 275 272 270 273 272 270 266 267 273 281 289 293 293 293 291 286 284 285 282 280 279 279 276 268 260 259 259 256 256 267 283 283 260 233 228 211 195 198 195 188 190 190 188 193 196 193 192 195 199 203 204 206 211 215 223 234 247 261 270 277 284 289 293 295 295 295
214 248 258 262 271 271 270 275 277 276 278 276 270 267 269 274 278 276 274 274 271 270 276 279 276 270 268 274 280 285 288 290 290 288 287 286 284 283 284 281 278 281 286 284 274 262 257 256 248 243 261 279 277 251 223 206 196 190 182 184 189 186 187 194 196 192 192 193 196 201 202 204 212 221 231 243 253 262 270 279 284 287 292 295 296 295
231 250 262 265 270 270 272 276 274 274 278 273 266 266 270 273 272 270 272 274 271 275 282 282 277 274 282 290 289 287 289 290 290 291 294 298 299 298 296 293 292 295 300 303 300 284 266 253 241 232 232 254 277 267 226 210 206 188 183 188 188 182 184 190 191 190 189 190 192 195 197 201 208 216 226 236 245 257 270 278 282 287 292 294 293 292
261 258 256 257 265 270 271 273 277 283 278 268 267 273 269 265 268 270 269 267 269 273 274 273 277 281 288 293 288 286 287 285 289 300 309 313 314 315 315 312 309 309 308 309 310 303 295 275 245 232 219 223 262 268 230 212 207 193 189 190 186 182 183 184 184 185 183 184 187 190 193 198 202 208 219 231 247 265 278 282 284 287 289 288 289 289
262 261 262 260 263 272 276 281 286 278 263 264 290 297 280 279 282 280 277 275 272 271 272 276 282 288 290 290 287 289 294 299 308 318 320 316 313 312 313 311 310 309 305 304 304 301 303 302 271 236 215 210 235 247 225 213 209 197 192 189 185 185 183 179 179 180 179 180 183 188 191 193 198 208 221 239 262 278 284 285 286 287 287 288 289 288
259 258 261 260 262 272 280 281 269 255 255 276 295 288 281 285 292 293 290 287 282 283 289 289 287 289 288 283 286 297 317 328 326 320 315 313 312 310 310 312 315 316 309 302 300 296 294 298 291 254 225 216 218 217 213 214 207 196 191 187 185 185 181 177 176 177 178 177 178 184 189 193 200 214 232 256 274 282 280 279 286 290 289 289 289 288
246 246 249 253 257 265 269 262 254 260 276 283 283 286 284 285 308 321 307 299 301 304 306 302 297 303 308 310 315 326 334 329 314 303 303 307 311 318 326 329 327 321 313 305 300 295 290 291 289 266 239 224 213 205 205 208 203 195 188 184 184 184 179 177 176 175 174 172 174 179 187 197 210 225 250 270 275 274 272 273 283 290 289 289 291 292
242 243 243 246 245 250 259 259 260 273 281 277 277 312 342 334 5 12 317 296 303 313 330 332 332 345 343 337 339 337 331 325 310 299 302 307 324 336 335 329 323 316 309 303 293 286 284 285 282 267 243 222 203 194 198 202 199 193 186 183 184 180 176 178 178 174 171 171 175 184 197 214 232 246 262 270 269 268 271 275 280 286 291 294 295 294
230 235 237 242 246 250 258 263 267 268 269 271 283 46 57 46 44 41 312 288 298 341 10 2 353 360 350 334 329 324 320 314 296 296 310 322 333 334 326 320 315 309 306 302 292 284 281 280 278 265 242 218 197 187 194 199 196 190 187 184 181 177 177 180 177 173 176 179 182 195 212 227 245 257 262 265 268 271 274 279 283 289 294 294 294 296
230 230 228 235 244 248 253 258 262 260 264 278 300 72 84 77 68 40 293 284 336 18 14 358 341 347 349 326 314 310 308 297 285 300 324 329 327 323 319 316 311 307 307 304 295 288 281 275 272 256 227 201 189 190 197 198 192 189 188 182 178 179 179 178 176 179 182 177 176 187 213 241 255 262 265 266 272 278 279 283 289 296 296 293 296 302
245 243 240 243 246 247 250 255 258 263 272 284 312 74 100 109 82 345 276 288 24 8 356 351 337 331 334 317 300 291 285 286 292 307 317 319 317 313 314 312 308 308 308 301 294 288 279 273 265 240 202 179 183 193 196 193 188 189 189 182 179 180 179 177 180 180 175 169 171 188 241 273 269 273 277 275 276 282 284 287 294 300 300 299 303 305
261 260 256 256 257 256 256 259 261 264 275 314 20 63 95 126 152 261 265 318 351 332 331 340 324 317 325 325 313 305 301 299 302 308 310 311 312 311 311 308 303 301 298 294 290 277 258 264 253 218 190 175 182 186 182 180 181 185 191 186 181 179 177 176 173 167 162 157 156 196 274 267 268 279 284 281 284 288 290 295 301 302 302 303 306 307
264 267 264 263 265 264 263 267 266 267 345 60 29 304 211 234 262 277 305 319 314 308 312 312 298 298 306 312 308 301 301 304 305 305 306 309 311 310 309 306 302 300 294 286 279 258 238 246 244 220 198 179 175 176 178 179 179 186 193 188 179 174 173 170 163 155 145 133 128 242 267 282 306 314 309 304 301 299 300 303 302 299 301 304 306 306
273 275 268 261 265 270 268 266 265 271 32 64 298 296 141 220 286 302 307 301 295 298 306 304 298 300 302 304 301 297 300 305 306 305 306 309 309 308 308 308 304 301 296 283 269 262 251 246 250 243 212 182 176 180 189 189 185 190 192 182 174 171 172 170 161 147 138 140 162 282 307 330 334 328 317 309 304 301 303 301 297 300 306 308 306 305
281 275 269 270 279 277 268 262 273 307 329 299 276 283 259 262 289 301 299 297 300 311 320 315 308 307 304 301 303 304 306 307 306 308 309 308 308 307 308 310 305 294 293 288 267 257 249 254 270 265 210 180 178 176 180 185 186 188 183 175 171 169 165 163 158 154 163 179 201 261 327 329 327 321 313 309 308 308 307 302 300 307 313 309 304 308
275 283 288 286 285 284 281 283 294 305 306 296 290 293 292 293 302 307 305 309 314 324 331 320 310 309 307 304 306 308 307 307 308 310 307 304 304 305 305 307 304 285 290 294 252 237 245 269 280 265 207 178 168 164 172 184 185 180 171 169 173 173 168 167 167 169 176 182 178 173 306 321 328 326 320 323 329 328 321 311 308 314 316 310 307 314
285 302 317 305 292 294 285 279 283 288 289 291 297 302 300 302 310 318 316 315 317 323 321 305 299 304 306 305 308 308 307 308 307 306 304 299 298 302 301 295 289 293 300 294 255 234 257 263 257 243 208 176 163 167 178 183 178 172 168 168 171 173 176 177 176 174 173 172 171 165 50 339 333 337 342 350 349 342 331 318 310 312 315 312 314 322
298 340 2 302 290 298 286 277 285 286 285 289 292 288 288 297 317 346 348 326 316 314 311 301 300 307 308 308 311 310 307 307 304 304 303 298 296 301 298 283 281 295 296 288 274 263 259 250 238 228 205 179 170 175 181 178 172 169 168 162 155 158 171 178 177 178 175 165 158 127 51 326 330 348 0 356 347 344 338 324 312 309 310 310 317 330
306 345 327 283 278 279 275 279 286 286 283 281 275 275 288 308 320 322 321 313 299 289 292 304 315 318 312 310 312 310 305 303 303 302 299 294 295 298 289 275 282 291 286 278 266 252 241 233 222 211 197 182 177 180 182 180 173 166 160 153 148 156 169 171 172 181 179 161 145 115 39 354 346 354 359 354 349 348 342 329 318 313 310 310 319 332
293 295 286 281 282 278 275 282 288 289 288 283 277 283 306 317 316 315 307 294 284 281 290 308 320 321 313 311 312 312 307 303 304 305 298 294 295 294 279 267 276 284 281 269 247 227 221 218 210 202 195 186 182 183 185 182 171 160 155 156 156 159 165 168 174 181 175 156 147 120 29 11 3 358 358 357 353 347 340 331 325 320 316 318 323 329
283 283 279 281 283 278 277 283 287 290 293 291 292 296 298 300 312 315 299 283 285 300 307 309 315 317 313 312 314 312 307 304 307 309 303 296 293 288 277 270 272 276 269 246 215 205 207 208 207 206 194 176 165 172 180 176 160 149 151 159 159 158 163 169 170 165 155 154 162 115 24 18 9 1 359 355 348 343 340 336 332 326 324 327 326 327
268 273 280 280 277 282 292 297 300 298 289 287 292 293 288 286 299 305 297 289 295 306 306 307 316 317 314 315 316 313 308 310 315 316 309 297 290 280 271 266 269 272 260 228 202 195 192 186 196 207 184 157 152 168 177 169 151 144 149 158 161 163 170 170 163 159 153 154 171 3 17 17 4 357 356 351 344 343 343 340 335 329 330 331 324 325